Regional Weather Roundup
Issued by NWS

Home | Current Version | Previous Version | Text Only | Print | Product List | Glossary On
Versions: 1 2 3 4 5 6 7 8 9 10 11 12 13 14 15 16 17 18 19 20 21 22 23 24 25 26 27 28 29 30 31 32 33 34 35 36 37 38 39 40 41 42 43 44 45 46 47 48 49 50
000
ASUS45 KSLC 061610
RWRUT

UTAH REGIONAL WEATHER ROUNDUP
NATIONAL WEATHER SERVICE SALT LAKE CITY UT
900 AM MST FRI MAR 06 2015

UTZ001>011-023>025-061700-

NORTHERN UTAH

CITY           SKY/WX    TMP DP  RH WIND       PRES   REMARKS
BRIGHAM CITY   SUNNY     31  24  77 CALM      30.48R
HILL AFB         N/A     34  16  48 E13       30.45R WCI  25
LOGAN          SUNNY     31  22  69 CALM      30.47R
OGDEN          SUNNY     36  19  50 SW3       30.45R
PROVO AIRPORT  SUNNY     36  19  51 CALM      30.49R
SALT LAKE CITY MOSUNNY   37  24  59 SE12      30.46R WCI  29
VERNAL         SUNNY     30  18  60 E3        30.46R
WENDOVER       SUNNY     34  21  60 SW3       30.46R
HEBER CITY     SUNNY     27  19  74 CALM      30.48R
WEST JORDAN    SUNNY     37  25  60 SE12      30.46R WCI  30

$$

UTZ012>022-026-027-061700-

SOUTHERN/CENTRAL UTAH

CITY           SKY/WX    TMP DP  RH WIND       PRES   REMARKS
BLANDING       SUNNY     35  22  58 CALM      30.49S
BRYCE CANYON   MOSUNNY    9   1  70 W10       30.44R WCI  -5
CEDAR CITY     SUNNY     30  14  51 CALM      30.42R
DELTA          SUNNY     30  24  78 CALM      30.46R
HANKSVILLE     SUNNY     32  28  86 CALM      30.48S
MILFORD        SUNNY     30  23  75 S5        30.44R WCI  25
MOAB/CYNLANDS  SUNNY     38  21  50 SE7       30.45R WCI  33
PRICE          SUNNY     31  19  61 S3        30.43R
ST GEORGE      SUNNY     39  28  65 CALM      30.43R
KANAB          SUNNY     39  16  38 NW13      30.44R WCI  32

$$

REGIONAL REPORTS     COLORADO/ARIZONA

CITY           SKY/WX    TMP DP  RH WIND       PRES   REMARKS
CRAIG, CO      SUNNY     25  14  63 SE7       30.45R WCI  17
GRAND JUNCTION SUNNY     35  18  49 SE9       30.47R WCI  28
RIFLE          SUNNY     29  16  58 NE6       30.49R WCI  23
MONTROSE       SUNNY     29  15  56 SE3       30.49R
CORTEZ         SUNNY     31  19  61 CALM      30.43R
PAGE, AZ       SUNNY     40  24  53 VRB3      30.44R
GRAND CANYON     N/A    N/A N/A N/A MISG      30.38R
KINGMAN        SUNNY     49  26  41 NE8       30.31R
FLAGSTAFF      SUNNY     37  14  38 E12       30.37R WCI  29

$$

REGIONAL REPORTS    NEVADA/IDAHO/WYOMING

CITY           SKY/WX    TMP DP  RH WIND       PRES   REMARKS
LAS VEGAS, NV  SUNNY     54  26  34 SW5       30.31R
ELY            SUNNY     28  19  69 S3        30.45R
ELKO           SUNNY     24  12  60 E6        30.47R WCI  17
POCATELLO, ID  SUNNY     35  24  64 SW5       30.44R WCI  31
BURLEY         SUNNY     37  19  48 S3        30.43R
EVANSTON, WY   SUNNY     28  13  53 SW12      30.42R WCI  18
ROCK SPRINGS   SUNNY     30  14  51 W16       30.38R WCI  19

$$



USA.gov is the U.S. government's official web portal to all federal, state and local government web resources and services.